RH
78 66 75 72 88 99 68 81 81 53 40 36 32 42 48 49 48 40 39 39 39 40 36 37 39 38 36 41 40 38 35 28 21 19 19 18 17 18 18 20 23 24 26
74 44 62 65 70 82 93 72 85 64 52 52 48 46 51 51 46 46 40 39 43 44 39 40 44 41 34 42 40 37 37 34 26 19 18 18 18 18 19 20 24 32 35
63 54 42 52 51 67 62 69 82 91 63 58 59 59 53 51 52 41 41 40 46 45 49 48 48 45 35 39 40 36 38 36 28 26 22 19 19 22 25 31 32 34 34
65 83 62 49 48 53 58 57 73 76 80 79 78 72 62 56 57 56 56 57 59 50 47 50 51 52 46 40 40 38 37 36 32 31 31 25 21 24 29 37 38 42 38
29 55 74 58 59 50 52 59 80 76 74 70 70 78 73 69 61 60 59 62 59 50 52 53 55 57 58 51 45 41 39 37 34 31 32 31 31 28 31 38 45 49 49
31 34 39 31 38 55 61 62 61 65 76 76 64 61 76 76 75 72 60 62 58 59 59 60 55 58 69 62 55 49 45 41 38 33 31 37 42 44 41 44 51 63 75
33 43 37 36 22 29 59 72 64 55 66 72 72 67 59 73 76 74 59 63 65 66 71 68 61 54 65 63 61 58 60 55 45 35 39 52 58 70 67 66 51 72 89
46 70 66 75 35 29 42 60 75 61 54 65 72 75 62 63 82 78 68 65 70 71 74 75 78 69 64 71 65 63 63 67 62 54 50 64 80 80 76 71 67 73 75
51 88 82 41 41 48 45 47 74 72 65 62 70 71 76 66 89 77 82 88 83 85 79 76 79 80 86 76 69 70 72 70 64 63 58 50 46 41 44 51 52 54 55
21 84 100 88 42 45 45 72 58 77 74 62 71 68 72 72 78 84 83 95 96 95 92 81 85 91 75 80 73 77 71 75 61 61 56 57 54 47 44 49 39 49 53
16 18 36 56 66 26 27 37 63 88 85 71 68 62 57 72 82 73 73 80 92 100 96 98 85 77 88 82 85 97 94 94 60 96 100 77 54 50 46 53 40 37 51
11 11 15 32 77 24 20 55 49 60 94 80 67 65 60 74 82 71 67 71 80 100 100 100 100 100 99 98 100 100 100 98 88 89 71 73 77 63 55 60 53 37 54
9 10 12 22 57 27 21 39 39 50 53 70 80 78 73 78 94 98 73 67 77 96 95 94 100 100 100 100 100 100 81 88 86 73 52 72 65 73 62 51 44 36 43
9 8 12 22 33 63 96 85 72 60 70 75 73 84 95 84 100 100 100 86 76 83 100 96 100 100 100 100 100 100 93 49 67 61 53 55 61 65 64 55 49 36 38
11 7 12 34 91 84 97 82 89 71 82 100 95 88 90 100 100 100 96 88 80 96 100 100 98 99 100 100 100 100 100 94 64 64 76 65 64 76 69 61 54 43 44
8 9 9 66 100 93 88 98 100 100 100 100 94 85 94 100 100 100 100 93 95 96 100 100 100 100 100 100 100 96 100 97 96 88 81 76 73 89 76 68 60 56 52
10 10 10 55 100 100 100 100 100 100 100 92 59 88 100 100 100 100 100 100 100 100 100 100 100 100 100 100 94 100 96 100 71 72 75 82 86 100 84 84 74 67 58
9 10 10 22 97 100 100 100 100 100 100 90 100 87 86 100 95 100 100 100 100 100 100 100 100 100 100 100 100 98 92 71 91 67 67 76 90 100 84 89 86 74 70
9 10 10 18 34 95 100 100 100 100 100 100 100 100 100 100 100 98 90 79 96 94 100 100 100 100 100 100 100 100 100 100 73 55 69 96 100 92 96 94 93 88 80
9 9 11 17 24 40 100 100 100 100 100 100 100 100 100 100 100 100 99 99 100 100 100 100 100 100 100 100 100 100 100 100 55 64 81 80 100 97 93 100 97 87 92
8 9 15 20 22 77 100 100 100 100 100 100 100 99 100 100 100 100 100 100 100 100 100 100 100 100 100 100 100 100 100 100 76 71 77 70 91 100 100 94 100 94 91
11 12 15 19 22 25 53 96 100 100 100 100 100 100 100 84 100 100 100 100 100 100 100 100 100 100 100 92 100 80 88 85 88 81 84 100 93 89 100 96 95 80 71
15 13 15 20 22 41 95 73 98 100 100 100 100 100 100 93 99 100 100 100 100 100 100 100 100 100 100 100 100 100 97 100 100 98 100 100 98 100 96 81 81 71 50
15 12 15 19 21 27 100 100 100 100 100 100 100 100 100 100 100 100 100 100 100 100 100 100 100 100 100 100 100 100 100 100 84 64 73 85 77 75 59 64 66 58 45
11 12 14 16 19 39 90 99 100 100 100 100 100 100 100 100 100 100 100 100 100 100 100 100 100 100 91 100 84 62 71 99 94 80 93 96 96 71 90 75 58 43 58
10 11 14 16 35 72 45 70 96 87 100 100 100 100 100 100 100 100 100 100 100 100 100 98 100 100 100 100 100 100 100 100 96 97 86 69 75 76 76 55 67 96 83
Wind_Speed
56 52 49 45 40 38 36 31 30 27 24 22 21 18 19 18 18 18 16 16 16 18 18 18 19 19 18 16 18 18 18 16 13 13 12 9 8 8 10 10 11 13 15
59 56 52 50 47 44 40 36 34 31 28 25 23 20 19 19 21 20 20 18 17 17 17 17 16 17 17 16 18 17 17 16 14 15 13 11 10 11 11 13 15 16 17
63 60 57 54 50 47 44 42 39 35 32 29 26 25 22 20 21 21 20 20 19 17 15 15 15 15 16 17 17 17 16 15 13 13 15 14 13 11 12 15 18 21 22
64 66 64 57 59 53 50 47 44 39 35 33 28 26 24 22 21 22 21 20 20 19 16 16 16 15 16 17 18 17 17 16 14 14 14 15 15 15 15 18 22 23 22
58 67 69 66 60 61 55 51 48 45 40 36 32 29 27 25 25 23 24 21 18 18 18 16 16 16 17 18 19 17 18 18 16 16 16 17 18 19 19 21 24 25 25
48 59 69 69 64 63 58 54 52 51 47 42 37 34 30 28 26 25 25 24 21 18 19 20 20 18 20 21 20 19 19 21 21 19 19 20 21 23 23 25 28 27 28
39 50 55 71 66 65 67 61 58 56 54 49 44 38 35 32 29 26 26 25 23 21 21 21 21 22 23 24 23 26 22 23 24 23 21 21 22 23 24 22 28 25 24
37 44 57 65 68 66 70 69 63 60 59 56 51 45 38 34 34 29 28 28 27 25 24 24 25 24 27 27 26 27 27 29 28 27 25 23 23 24 26 26 25 26 29
31 42 48 61 64 54 61 65 68 65 61 58 55 50 44 37 38 35 32 32 31 30 29 28 28 29 30 30 30 29 30 31 31 31 30 30 29 29 30 31 31 32 33
43 46 45 55 61 61 58 57 65 68 65 61 58 54 49 44 43 39 36 34 33 33 32 32 33 34 35 34 34 33 33 34 34 31 30 31 31 33 31 30 28 32 32
49 53 52 51 58 69 59 60 61 65 67 64 59 57 54 49 49 43 40 38 36 36 36 36 38 38 39 39 38 37 38 37 37 32 34 32 33 31 33 30 24 29 30
58 49 43 51 58 59 60 58 63 61 67 66 64 58 57 54 53 49 45 45 43 40 40 41 42 43 41 41 43 41 39 40 40 36 38 38 37 36 35 36 32 30 29
61 56 47 49 60 52 62 63 61 62 64 62 63 58 56 57 56 56 54 51 49 45 44 46 45 45 47 45 40 39 45 44 44 41 39 39 43 40 36 36 32 31 32
67 56 40 49 60 57 63 59 62 60 64 63 63 59 55 55 60 60 60 55 52 49 47 47 50 51 50 48 48 47 48 51 45 44 43 44 41 43 38 39 37 34 31
69 56 38 56 61 62 58 57 62 57 57 63 67 69 64 60 59 62 62 58 53 52 52 51 51 54 52 49 44 46 50 50 50 51 49 48 46 45 43 42 38 38 35
69 64 43 66 68 54 57 59 65 62 59 62 66 68 68 67 66 62 62 60 56 53 52 48 46 48 49 50 48 48 56 55 54 56 54 55 50 45 47 46 43 45 45
73 67 55 66 77 70 67 69 67 62 69 65 62 61 62 65 70 64 59 61 61 60 59 62 58 58 55 58 56 50 60 59 55 56 55 54 47 47 49 51 53 53 49
75 68 64 61 89 83 70 65 70 73 74 71 70 66 58 62 62 65 67 69 64 65 66 59 58 59 55 58 59 53 62 62 56 55 51 53 52 52 56 54 54 54 55
72 70 68 64 84 96 87 75 66 66 60 72 67 63 58 59 61 61 64 65 65 63 59 55 56 60 55 57 56 62 61 59 58 52 53 51 54 55 56 59 60 61 58
72 71 65 64 74 85 95 83 73 76 68 74 61 68 65 61 63 61 57 61 62 64 62 60 54 55 55 59 59 60 62 57 57 54 55 55 56 58 61 64 63 63 62
67 66 64 63 71 87 92 85 80 81 75 75 75 72 66 63 62 62 63 59 60 57 61 60 55 59 61 60 62 63 64 68 62 62 58 58 59 62 64 69 68 66 68
63 62 62 63 70 77 90 90 89 86 75 77 84 82 78 72 60 59 60 59 59 60 65 59 60 63 66 66 69 71 71 72 69 63 61 59 60 64 67 67 71 73 74
64 61 64 64 73 83 94 94 88 88 83 79 79 79 84 82 69 66 60 62 60 61 67 59 64 71 75 73 70 68 67 67 65 61 64 63 65 64 71 73 74 74 76
66 62 65 70 78 81 92 94 82 95 98 95 83 82 76 79 74 69 67 69 69 67 60 62 63 69 70 70 71 71 69 67 67 66 68 69 71 75 77 76 76 76 82
66 68 71 74 75 84 88 86 85 93 86 85 86 80 76 71 81 73 74 69 69 68 67 72 74 78 75 74 77 77 74 70 70 73 73 76 75 78 79 83 80 82 79
70 72 71 75 78 82 79 82 87 92 87 79 82 81 79 80 79 82 83 77 75 72 73 70 74 74 71 68 66 66 71 76 79 80 78 77 82 82 83 86 83 84 83
Wind_Direction
243 237 241 242 243 246 249 250 254 253 249 248 250 251 250 257 263 261 267 277 280 285 288 298 295 291 293 295 311 314 328 324 306 299 306 306 301 308 312 308 321 323 318
243 241 238 239 241 242 246 248 250 251 248 246 249 250 250 255 258 261 267 271 274 285 297 305 299 294 290 292 303 310 319 322 315 302 295 295 296 296 304 307 309 314 314
243 244 240 240 237 239 243 246 245 248 246 248 246 247 249 250 257 258 264 268 270 271 290 301 305 301 291 285 296 303 309 314 309 303 295 292 291 289 296 299 304 308 308
242 245 248 245 242 239 241 243 242 244 246 247 245 245 247 247 252 257 263 263 265 264 277 290 297 300 297 288 292 298 302 308 306 307 307 299 290 287 292 298 305 308 311
245 244 247 250 247 244 240 240 239 240 242 245 245 245 244 248 250 255 260 258 261 264 270 281 287 297 301 301 300 299 300 298 305 299 299 296 297 294 291 297 303 304 309
238 242 248 248 247 244 239 239 238 240 239 241 243 246 246 248 251 251 253 257 258 264 268 276 278 287 293 299 301 306 304 301 297 295 292 294 293 295 293 296 302 305 309
232 238 240 244 244 242 238 240 240 241 240 241 242 243 246 248 247 247 250 254 260 262 266 273 278 280 287 295 300 307 306 309 300 295 294 292 292 293 298 298 309 308 307
239 241 232 237 239 239 239 239 239 240 241 240 240 240 242 244 248 245 246 251 257 260 264 269 274 277 285 291 294 302 303 307 307 297 289 285 285 288 293 296 303 305 305
231 228 237 240 238 232 240 239 238 237 238 239 238 239 239 241 247 246 249 254 254 257 261 267 272 275 280 283 288 293 296 302 303 297 289 285 284 285 291 295 303 308 306
251 213 236 241 238 233 226 234 238 237 236 236 237 238 239 239 245 247 248 254 257 256 262 267 271 274 277 278 285 287 292 295 298 294 296 292 292 293 292 296 306 306 307
244 240 238 242 236 231 226 230 232 234 235 236 235 240 240 239 243 246 247 250 260 261 261 263 268 271 274 275 280 286 288 288 290 288 294 293 299 298 292 290 305 308 304
252 246 224 236 231 234 225 223 230 231 231 235 235 238 238 238 242 245 246 251 258 265 261 263 266 271 273 274 278 281 284 285 283 285 291 292 295 296 295 289 293 301 303
252 247 232 243 229 228 227 227 233 229 229 232 232 237 237 238 241 244 247 249 255 261 261 264 265 270 273 276 274 279 279 281 280 286 292 293 292 295 291 286 290 300 305
251 248 231 234 224 221 228 229 234 233 229 233 233 235 238 239 242 245 249 254 252 257 260 262 263 269 269 273 277 283 281 279 281 284 289 294 293 289 286 283 285 301 307
250 245 222 220 223 216 221 227 230 230 231 236 238 238 238 242 244 247 249 251 254 258 261 265 266 266 269 273 275 283 279 278 278 283 288 289 291 287 283 280 287 293 303
249 242 227 217 214 220 220 222 224 228 238 238 238 241 242 241 243 247 248 249 253 258 259 266 272 270 269 273 268 275 274 279 278 281 284 287 287 277 282 277 280 288 293
248 239 220 218 216 207 212 220 225 236 237 237 236 236 244 245 244 244 247 250 257 256 263 263 263 270 268 272 262 270 274 278 276 278 283 281 280 276 277 280 280 281 289
248 237 229 224 217 214 216 223 231 240 238 238 237 240 240 243 243 247 248 249 250 254 258 259 265 266 264 266 262 267 267 275 279 277 277 281 278 274 278 277 278 280 283
241 237 232 224 218 219 219 215 224 240 235 234 239 234 236 245 242 246 251 249 252 254 259 263 268 267 261 262 265 262 268 268 274 276 280 278 277 279 278 276 276 281 282
236 236 234 224 224 221 220 219 218 212 222 227 234 234 235 241 246 243 252 250 254 257 258 258 266 261 260 263 264 264 260 271 271 279 276 277 278 278 279 278 278 282 290
236 235 231 226 223 215 217 215 214 223 227 226 238 227 242 239 242 247 248 254 253 256 253 256 262 261 260 262 263 266 264 269 273 276 275 277 276 275 273 279 278 283 288
234 232 228 224 224 221 220 215 217 224 229 230 233 236 240 233 236 249 249 250 251 252 252 255 261 257 259 261 261 266 267 271 273 275 274 272 271 275 273 274 278 281 285
232 227 224 223 219 218 212 222 220 220 228 230 235 239 240 240 243 249 247 250 255 255 252 252 262 260 262 264 263 265 268 269 268 271 270 271 273 271 272 275 277 281 285
229 226 222 216 218 219 217 222 222 227 232 231 234 238 243 245 243 246 245 250 251 252 248 246 252 253 252 252 257 259 263 262 264 272 270 273 274 273 280 277 278 284 287
226 224 221 217 217 211 217 220 223 226 231 235 238 237 235 244 243 244 244 249 254 244 241 243 247 252 260 259 263 268 266 261 267 270 269 273 273 281 278 280 280 288 288
222 222 220 218 213 211 216 220 227 227 228 230 229 230 236 234 242 244 247 250 246 246 246 244 246 252 253 259 267 268 263 263 268 270 275 274 277 277 279 282 287 291 293